Location: Poughquag
(41.6090°N, 73.6820°W)
Time: 00:36:07
(UTC-05:00)

Vanguard 2 - All Passes

Search period start: 29 November 2023 00:00
Search period end: 09 December 2023 00:00
Orbit: 553 x 2923 km, 32.9° (Epoch: 28 November)

Date Brightness Start Highest point End Pass type
(mag) Time Alt. Az. Time Alt. Az. Time Alt. Az.
29 Nov - 01:41:49 10° WSW 01:51:53 46° S 01:58:04 10° ESE night (unlit)
29 Nov - 03:53:57 10° WSW 03:59:32 22° SSW 04:03:37 10° SSE visible
29 Nov - 19:29:21 10° S 19:38:11 16° SE 19:45:55 10° ESE visible
29 Nov - 21:34:39 10° SW 21:48:25 36° SSE 21:58:10 10° E visible
29 Nov - 23:45:18 10° WSW 23:58:24 50° S 00:06:30 10° ESE night (unlit)
30 Nov - 01:57:31 10° W 02:07:21 43° SSW 02:13:27 10° SE night (unlit)
30 Nov - 04:10:11 10° WSW 04:14:42 17° SW 04:18:13 10° S visible
30 Nov - 19:42:05 10° S 19:53:37 22° SSE 20:03:16 10° ESE visible
30 Nov - 21:49:25 10° SW 22:03:58 42° SSE 22:14:01 10° E visible
01 Dec - 00:00:48 10° WSW 00:13:58 53° S 00:22:02 10° ESE night (unlit)
01 Dec - 02:13:16 10° W 02:22:45 39° SSW 02:28:42 10° SE night (unlit)
01 Dec - 04:27:04 10° WSW 04:29:46 12° SW 04:32:06 10° SSW visible
01 Dec - 19:55:42 10° SSW 20:09:02 28° SSE 20:19:52 10° E visible
01 Dec - 22:04:26 10° SW 22:19:32 47° SSE 22:29:44 10° E visible
02 Dec - 00:16:23 10° WSW 00:29:31 53° S 00:37:32 10° ESE night (unlit)
02 Dec - 02:29:06 10° W 02:38:03 34° SSW 02:43:52 10° SE night (unlit)
02 Dec - 18:07:12 10° SSE 18:14:18 14° SE 18:21:01 10° ESE visible
02 Dec - 20:09:52 10° SSW 20:24:29 34° SSE 20:36:03 10° E visible
02 Dec - 22:19:40 10° WSW 22:35:07 52° S 22:45:22 10° E visible
03 Dec - 00:32:03 10° W 00:45:02 52° S 00:52:57 10° ESE night (unlit)
03 Dec - 02:45:02 10° W 02:53:16 28° SSW 02:58:49 10° SSE visible
03 Dec - 18:18:57 10° S 18:29:33 19° SE 18:39:23 10° ESE visible
03 Dec - 20:24:24 10° SW 20:39:57 40° SSE 20:52:01 10° E visible
03 Dec - 22:35:03 10° WSW 22:50:42 56° S 23:00:57 10° E visible
04 Dec - 00:47:46 10° W 01:00:30 49° SSW 01:08:20 10° ESE night (unlit)
04 Dec - 03:01:11 10° W 03:08:23 23° SW 03:13:31 10° SSE visible
04 Dec - 18:32:04 10° S 18:44:49 25° SE 18:56:26 10° E visible
04 Dec - 20:39:15 10° SW 20:55:27 46° SSE 21:07:48 10° E visible
04 Dec - 22:50:35 10° WSW 23:06:16 58° S 23:16:29 10° ESE visible
05 Dec - 01:03:32 10° W 01:15:54 45° SSW 01:23:36 10° SE night (unlit)
05 Dec - 03:17:40 10° WSW 03:23:23 17° SW 03:27:46 10° S visible
05 Dec - 18:45:54 10° SSW 19:00:06 31° SSE 19:12:54 10° E visible
05 Dec - 20:54:19 10° SW 21:10:58 52° SSE 21:23:30 10° E visible
05 Dec - 23:06:11 10° WSW 23:21:50 58° S 23:31:58 10° ESE visible
06 Dec - 01:19:21 10° W 01:31:11 40° SSW 01:38:43 10° SE night (unlit)
06 Dec - 03:35:03 10° WSW 03:38:18 12° SW 03:41:06 10° SSW night (unlit)
06 Dec - 16:57:30 10° SSE 17:05:28 15° SE 17:13:28 10° ESE visible
06 Dec - 19:00:12 10° SSW 19:15:25 37° SSE 19:29:02 10° E visible
06 Dec - 21:09:34 10° WSW 21:26:32 56° S 21:39:08 10° E visible
06 Dec - 23:21:51 10° W 23:37:21 57° S 23:47:23 10° ESE visible
07 Dec - 01:35:17 10° W 01:46:23 34° SSW 01:53:41 10° SSE night (unlit)
07 Dec - 17:09:44 10° S 17:20:32 21° SE 17:31:30 10° E visible
07 Dec - 19:14:49 10° SW 19:30:47 44° SSE 19:44:57 10° E visible
07 Dec - 21:24:58 10° WSW 21:42:07 59° S 21:54:43 10° E visible
07 Dec - 23:37:34 10° W 23:52:49 54° SSW 00:02:45 10° ESE visible
08 Dec - 01:51:21 10° W 02:01:28 28° SW 02:08:25 10° SSE night (unlit)
08 Dec - 17:23:05 10° S 17:35:37 26° SE 17:48:26 10° E visible
08 Dec - 19:29:43 10° SW 19:46:12 49° SSE 20:00:44 10° E visible
08 Dec - 21:40:29 10° WSW 21:57:41 61° S 22:10:15 10° ESE visible
